| time (UTC) | temp F | wind direction | speed MPH | gust MPH | rain 1hr in | rain 24hr in | rain mn in | humidity % | barometer mb |
| 20260906161603 | 66 | 86 | 3.0 | 9.0 | 0.00 | 0.03 | 0.01 | 44 | 1015.0 |
| 20260906160056 | 65 | 34 | 4.0 | 11.0 | 0.00 | 0.03 | 0.01 | 46 | 1015.2 |
| 20260906154601 | 65 | 103 | 4.0 | 14.0 | 0.00 | 0.03 | 0.01 | 52 | 1015.3 |
| 20260906153053 | 64 | 0 | 4.0 | 13.0 | 0.00 | 0.03 | 0.01 | 57 | 1015.5 |
| 20260906151557 | 64 | 29 | 6.0 | 12.0 | 0.00 | 0.03 | 0.01 | 57 | 1015.6 |
| 20260906150104 | 64 | 313 | 4.0 | 11.0 | 0.00 | 0.03 | 0.01 | 63 | 1015.7 |
| 20260906144548 | 62 | 322 | 4.0 | 12.0 | 0.00 | 0.03 | 0.01 | 71 | 1015.7 |
| 20260906143108 | 61 | 330 | 3.0 | 12.0 | 0.00 | 0.03 | 0.01 | 83 | 1015.7 |
| 20260906141601 | 61 | 340 | 4.0 | 11.0 | 0.00 | 0.03 | 0.01 | 83 | 1015.7 |
| 20260906140058 | 62 | 341 | 2.0 | 9.0 | 0.00 | 0.03 | 0.01 | 86 | 1015.7 |
| 20260906134559 | 62 | 352 | 0.0 | 5.0 | 0.00 | 0.03 | 0.01 | 93 | 1015.9 |
| 20260906133052 | 61 | 0 | 1.0 | 4.0 | 0.00 | 0.03 | 0.01 | 94 | 1015.7 |
| 20260906131546 | 61 | 295 | 0.0 | 4.0 | 0.00 | 0.03 | 0.01 | 96 | 1015.6 |
| 20260906124600 | 60 | 5 | 0.0 | 3.0 | 0.00 | 0.03 | 0.01 | 96 | 1015.6 |
| 20260906123059 | 60 | 0 | 0.0 | 2.0 | 0.00 | 0.03 | 0.01 | 97 | 1015.7 |
| 20260906121547 | 60 | 317 | 2.0 | 4.0 | 0.00 | 0.03 | 0.01 | 98 | 1015.6 |
| 20260906120140 | 60 | 355 | 0.0 | 5.0 | 0.00 | 0.03 | 0.01 | 98 | 1015.5 |
| 20260906114605 | 59 | 349 | 0.0 | 4.0 | 0.00 | 0.03 | 0.01 | 98 | 1015.4 |
| 20260906113053 | 59 | 324 | 0.0 | 4.0 | 0.00 | 0.03 | 0.01 | 98 | 1015.3 |
| 20260906111557 | 59 | 315 | 0.0 | 2.0 | 0.00 | 0.03 | 0.01 | 98 | 1015.2 |
| 20260906110100 | 58 | 0 | 1.0 | 5.0 | 0.00 | 0.03 | 0.01 | 97 | 1015.0 |
| 20260906104556 | 58 | 0 | 0.0 | 1.0 | 0.00 | 0.03 | 0.01 | 96 | 1014.8 |
| 20260906103052 | 58 | 0 | 0.0 | 2.0 | 0.00 | 0.03 | 0.01 | 96 | 1014.7 |
| 20260906101600 | 58 | 0 | 0.0 | 2.0 | 0.00 | 0.03 | 0.01 | 95 | 1014.8 |
| 20260906100057 | 58 | 0 | 0.0 | 2.0 | 0.00 | 0.03 | 0.01 | 95 | 1014.7 |
| 20260906094557 | 57 | 348 | 0.0 | 2.0 | 0.01 | 0.03 | 0.01 | 94 | 1014.6 |
| 20260906093051 | 57 | 0 | 0.0 | 0.0 | 0.01 | 0.03 | 0.01 | 93 | 1014.6 |
| 20260906091601 | 57 | 0 | 0.0 | 1.0 | 0.01 | 0.03 | 0.01 | 92 | 1014.3 |
| 20260906090057 | 57 | 39 | 0.0 | 2.0 | 0.01 | 0.03 | 0.01 | 92 | 1014.3 |
| 20260906084554 | 57 | 0 | 0.0 | 1.0 | 0.00 | 0.02 | 0.00 | 91 | 1014.2 |
| 20260906083052 | 57 | 0 | 0.0 | 0.0 | 0.00 | 0.02 | 0.00 | 90 | 1014.3 |
| 20260906081548 | 57 | 0 | 0.0 | 1.0 | 0.00 | 0.02 | 0.00 | 89 | 1014.3 |
| 20260906080059 | 57 | 0 | 0.0 | 0.0 | 0.00 | 0.02 | 0.00 | 87 | 1014.2 |
| 20260906074554 | 57 | 0 | 0.0 | 1.0 | 0.00 | 0.02 | 0.00 | 85 | 1014.2 |
| 20260906073051 | 58 | 0 | 0.0 | 1.0 | 0.00 | 0.02 | 0.00 | 80 | 1014.0 |
| 20260906071600 | 58 | 0 | 0.0 | 1.0 | 0.00 | 0.02 | 0.00 | 80 | 1014.0 |
| 20260906070059 | 58 | 0 | 0.0 | 3.0 | 0.00 | 0.02 | 0.00 | 80 | 1014.0 |
| 20260906064553 | 58 | 0 | 0.0 | 3.0 | 0.00 | 0.02 | 0.00 | 80 | 1013.9 |
| 20260906063049 | 58 | 0 | 0.0 | 2.0 | 0.00 | 0.02 | 0.00 | 80 | 1013.8 |
| 20260906061602 | 58 | 0 | 0.0 | 4.0 | 0.00 | 0.02 | 0.00 | 80 | 1013.7 |
| 20260906060047 | 57 | 339 | 0.0 | 4.0 | 0.00 | 0.02 | 0.00 | 81 | 1013.9 |
| 20260906054605 | 57 | 0 | 0.0 | 5.0 | 0.00 | 0.02 | 0.00 | 81 | 1013.9 |
| 20260906053049 | 57 | 0 | 0.0 | 6.0 | 0.00 | 0.02 | 0.00 | 81 | 1013.8 |
| 20260906051548 | 57 | 0 | 0.0 | 1.0 | 0.00 | 0.02 | 0.00 | 81 | 1014.0 |
| 20260906050106 | 57 | 0 | 0.0 | 2.0 | 0.00 | 0.02 | 0.00 | 80 | 1014.0 |
| 20260906044549 | 58 | 0 | 0.0 | 2.0 | 0.00 | 0.02 | 0.00 | 79 | 1014.1 |
| 20260906043048 | 58 | 0 | 0.0 | 2.0 | 0.00 | 0.02 | 0.00 | 79 | 1013.8 |
| 20260906041602 | 58 | 0 | 0.0 | 4.0 | 0.00 | 0.02 | 0.00 | 79 | 1013.8 |
| 20260906040103 | 59 | 0 | 0.0 | 4.0 | 0.00 | 0.02 | 0.00 | 77 | 1014.0 |
| 20260906034554 | 59 | 0 | 0.0 | 3.0 | 0.00 | 0.02 | 0.02 | 76 | 1013.8 |
| 20260906033049 | 59 | 0 | 0.0 | 3.0 | 0.00 | 0.02 | 0.02 | 77 | 1013.6 |
| 20260906031613 | 60 | 0 | 0.0 | 4.0 | 0.00 | 0.02 | 0.02 | 78 | 1013.6 |
| 20260906030055 | 60 | 342 | 1.0 | 5.0 | 0.00 | 0.02 | 0.02 | 77 | 1013.6 |
| 20260906024601 | 61 | 0 | 0.0 | 5.0 | 0.00 | 0.02 | 0.02 | 78 | 1013.4 |
| 20260906023102 | 61 | 0 | 0.0 | 3.0 | 0.00 | 0.02 | 0.02 | 79 | 1013.4 |
| 20260906021603 | 62 | 352 | 0.0 | 3.0 | 0.00 | 0.02 | 0.02 | 79 | 1013.4 |
| 20260906020057 | 62 | 325 | 1.0 | 7.0 | 0.00 | 0.02 | 0.02 | 83 | 1013.2 |
| 20260906014553 | 62 | 0 | 0.0 | 1.0 | 0.00 | 0.02 | 0.02 | 84 | 1013.2 |
| 20260906013050 | 62 | 0 | 0.0 | 0.0 | 0.00 | 0.02 | 0.02 | 83 | 1013.3 |
| 20260906011547 | 62 | 0 | 0.0 | 0.0 | 0.00 | 0.02 | 0.02 | 83 | 1013.4 |
| 20260906010052 | 62 | 0 | 0.0 | 1.0 | 0.00 | 0.02 | 0.02 | 82 | 1013.4 |
| 20260906004546 | 63 | 0 | 0.0 | 0.0 | 0.00 | 0.02 | 0.02 | 81 | 1013.2 |
| 20260906003050 | 63 | 0 | 0.0 | 0.0 | 0.00 | 0.02 | 0.02 | 80 | 1013.0 |
| 20260906001547 | 64 | 0 | 0.0 | 0.0 | 0.00 | 0.02 | 0.02 | 80 | 1012.9 |
| 20260906000107 | 64 | 0 | 0.0 | 1.0 | 0.00 | 0.02 | 0.02 | 82 | 1012.6 |
| 20260905234559 | 65 | 0 | 0.0 | 3.0 | 0.00 | 0.02 | 0.02 | 83 | 1012.7 |
| 20260905233052 | 65 | 0 | 0.0 | 3.0 | 0.00 | 0.02 | 0.02 | 81 | 1012.5 |
| 20260905231549 | 66 | 0 | 0.0 | 0.0 | 0.00 | 0.02 | 0.02 | 77 | 1012.4 |
| 20260905230100 | 66 | 0 | 0.0 | 4.0 | 0.00 | 0.02 | 0.02 | 71 | 1012.3 |
| 20260905224552 | 66 | 5 | 1.0 | 3.0 | 0.00 | 0.02 | 0.02 | 70 | 1012.2 |
| 20260905223051 | 66 | 0 | 0.0 | 3.0 | 0.00 | 0.02 | 0.02 | 68 | 1012.2 |
| 20260905221549 | 67 | 0 | 0.0 | 5.0 | 0.00 | 0.02 | 0.02 | 66 | 1012.1 |
| 20260905220059 | 67 | 56 | 2.0 | 10.0 | 0.00 | 0.02 | 0.02 | 64 | 1011.8 |
| 20260905214555 | 67 | 321 | 2.0 | 12.0 | 0.00 | 0.02 | 0.02 | 66 | 1011.6 |
| 20260905213049 | 67 | 360 | 1.0 | 3.0 | 0.00 | 0.02 | 0.02 | 68 | 1011.5 |
| 20260905211602 | 67 | 317 | 2.0 | 4.0 | 0.00 | 0.02 | 0.02 | 67 | 1011.3 |
| 20260905204611 | 68 | 23 | 2.0 | 8.0 | 0.00 | 0.02 | 0.02 | 65 | 1011.2 |
| 20260905203101 | 69 | 26 | 4.0 | 15.0 | 0.00 | 0.02 | 0.02 | 62 | 1011.1 |
| 20260905201553 | 69 | 17 | 2.0 | 9.0 | 0.00 | 0.02 | 0.02 | 66 | 1011.0 |
| 20260905200058 | 68 | 12 | 2.0 | 8.0 | 0.00 | 0.02 | 0.02 | 69 | 1011.0 |
| 20260905194600 | 68 | 352 | 3.0 | 8.0 | 0.00 | 0.02 | 0.02 | 69 | 1011.0 |
| 20260905193052 | 68 | 348 | 3.0 | 10.0 | 0.02 | 0.02 | 0.02 | 72 | 1011.0 |
| 20260905191549 | 68 | 94 | 2.0 | 9.0 | 0.02 | 0.02 | 0.02 | 74 | 1011.0 |
| 20260905190057 | 66 | 0 | 0.0 | 5.0 | 0.02 | 0.02 | 0.02 | 80 | 1011.0 |
| 20260905184557 | 66 | 29 | 1.0 | 8.0 | 0.02 | 0.02 | 0.02 | 78 | 1011.0 |
| 20260905183056 | 68 | 183 | 3.0 | 6.0 | 0.00 | 0.00 | 0.00 | 73 | 1010.8 |
| 20260905181548 | 66 | 338 | 2.0 | 9.0 | 0.00 | 0.00 | 0.00 | 78 | 1011.0 |
| 20260905180104 | 66 | 24 | 3.0 | 15.0 | 0.00 | 0.00 | 0.00 | 80 | 1011.0 |
| 20260905174555 | 67 | 21 | 5.0 | 9.0 | 0.00 | 0.03 | 0.00 | 79 | 1010.9 |
| 20260905173100 | 66 | 350 | 4.0 | 15.0 | 0.00 | 0.03 | 0.00 | 78 | 1010.9 |
| 20260905171546 | 68 | 43 | 4.0 | 11.0 | 0.00 | 0.03 | 0.00 | 71 | 1010.8 |
| 20260905164602 | 70 | 92 | 3.0 | 12.0 | 0.00 | 0.03 | 0.00 | 66 | 1010.7 |
| 20260905163101 | 68 | 355 | 3.0 | 8.0 | 0.00 | 0.03 | 0.00 | 72 | 1010.8 |